Hourly Weather Chagly

Today, 16 June, Wednesday

Time Temperature Precipitation Wind Pressure Humidity
00:00 +24°C° 0 mm 3 mps 748 mmHg 40%
01:00 +24°C° 0 mm 3 mps 748 mmHg 42%
02:00 +24°C° 0 mm 3 mps 748 mmHg 44%
03:00 +22°C° 0 mm 3 mps 748 mmHg 47%
04:00 +22°C° 0 mm 3 mps 748 mmHg 51%
05:00 +21°C° 0 mm 3 mps 748 mmHg 55%
06:00 +22°C° 0 mm 3 mps 748 mmHg 55%
07:00 +25°C° 0 mm 4 mps 748 mmHg 56%
08:00 +26°C° 0 mm 4 mps 749 mmHg 56%
09:00 +27°C° 0 mm 4 mps 749 mmHg 51%
10:00 +29°C° 0 mm 4 mps 749 mmHg 47%
11:00 +30°C° 0 mm 5 mps 749 mmHg 42%
12:00 +30°C° 0 mm 4 mps 749 mmHg 41%
13:00 +30°C° 0 mm 4 mps 748 mmHg 41%
14:00 +30°C° 0 mm 4 mps 748 mmHg 40%
15:00 +30°C° 0.1 mm 3 mps 748 mmHg 43%
16:00 +29°C° 0.1 mm 3 mps 748 mmHg 46%
17:00 +28°C° 0.1 mm 2 mps 748 mmHg 49%
18:00 +27°C° 0.3 mm 2 mps 748 mmHg 57%
19:00 +25°C° 0.3 mm 2 mps 748 mmHg 65%
20:00 +24°C° 0.3 mm 2 mps 748 mmHg 73%
21:00 +23°C° 0.2 mm 2 mps 748 mmHg 74%
22:00 +21°C° 0.2 mm 2 mps 748 mmHg 75%
23:00 +20°C° 0.2 mm 2 mps 748 mmHg 76%

Tomorrow, 17 June, Thursday

Time Temperature Precipitation Wind Pressure Humidity
00:00 +20°C° 0.1 mm 2 mps 748 mmHg 76%
01:00 +20°C° 0.1 mm 3 mps 747 mmHg 77%
02:00 +20°C° 0.1 mm 3 mps 747 mmHg 77%
03:00 +20°C° 0 mm 3 mps 747 mmHg 76%
04:00 +20°C° 0 mm 3 mps 747 mmHg 74%
05:00 +20°C° 0 mm 3 mps 747 mmHg 73%
06:00 +24°C° 0 mm 3 mps 747 mmHg 64%
07:00 +26°C° 0 mm 3 mps 746 mmHg 55%
08:00 +28°C° 0 mm 3 mps 746 mmHg 46%
09:00 +30°C° 0 mm 4 mps 746 mmHg 41%
10:00 +33°C° 0 mm 4 mps 745 mmHg 35%
11:00 +34°C° 0 mm 5 mps 745 mmHg 30%
12:00 +35°C° 0 mm 5 mps 745 mmHg 28%
13:00 +35°C° 0 mm 5 mps 744 mmHg 26%
14:00 +36°C° 0 mm 5 mps 744 mmHg 24%
15:00 +36°C° 0 mm 5 mps 743 mmHg 25%
16:00 +35°C° 0 mm 4 mps 743 mmHg 25%
17:00 +35°C° 0 mm 4 mps 742 mmHg 26%
18:00 +33°C° 0.1 mm 5 mps 742 mmHg 34%
19:00 +29°C° 0.1 mm 5 mps 742 mmHg 41%
20:00 +26°C° 0.1 mm 5 mps 743 mmHg 49%
21:00 +25°C° 0 mm 4 mps 742 mmHg 53%
22:00 +24°C° 0 mm 3 mps 742 mmHg 57%
23:00 +22°C° 0 mm 3 mps 741 mmHg 60%

Day after tomorrow, 18 June, Friday

Time Temperature Precipitation Wind Pressure Humidity
00:00 +22°C° 0 mm 3 mps 741 mmHg 59%
01:00 +22°C° 0 mm 3 mps 740 mmHg 57%
02:00 +21°C° 0 mm 4 mps 739 mmHg 55%
03:00 +21°C° 0 mm 3 mps 739 mmHg 57%
04:00 +20°C° 0 mm 2 mps 739 mmHg 59%
05:00 +20°C° 0 mm 2 mps 739 mmHg 60%
06:00 +21°C° 0 mm 2 mps 738 mmHg 58%
07:00 +24°C° 0 mm 3 mps 738 mmHg 55%
08:00 +25°C° 0 mm 3 mps 738 mmHg 52%
09:00 +23°C° 0.2 mm 4 mps 738 mmHg 56%
10:00 +23°C° 0.2 mm 5 mps 738 mmHg 60%
11:00 +23°C° 0.2 mm 5 mps 738 mmHg 64%
12:00 +20°C° 0.6 mm 6 mps 738 mmHg 72%
13:00 +16°C° 0.6 mm 7 mps 738 mmHg 80%
14:00 +14°C° 0.6 mm 7 mps 739 mmHg 88%
15:00 +12°C° 0.5 mm 8 mps 739 mmHg 89%
16:00 +10°C° 0.5 mm 8 mps 740 mmHg 89%
17:00 +8°C° 0.5 mm 9 mps 740 mmHg 90%
18:00 +7°C° 0.1 mm 9 mps 741 mmHg 89%
19:00 +7°C° 0.1 mm 8 mps 741 mmHg 88%
20:00 +6°C° 0.1 mm 8 mps 741 mmHg 87%
21:00 +6°C° 0.2 mm 8 mps 742 mmHg 85%
22:00 +6°C° 0.2 mm 8 mps 742 mmHg 84%
23:00 +6°C° 0.2 mm 8 mps 742 mmHg 82%

19 June, Saturday

Time Temperature Precipitation Wind Pressure Humidity
00:00 +6°C° 0.7 mm 9 mps 742 mmHg 84%
01:00 +5°C° 0.7 mm 9 mps 742 mmHg 85%
02:00 +5°C° 0.7 mm 10 mps 742 mmHg 86%
03:00 +5°C° 2.9 mm 10 mps 742 mmHg 87%
04:00 +5°C° 2.9 mm 10 mps 742 mmHg 88%
05:00 +5°C° 2.9 mm 10 mps 743 mmHg 88%
06:00 +6°C° 1.5 mm 9 mps 743 mmHg 84%
07:00 +6°C° 1.5 mm 8 mps 743 mmHg 79%
08:00 +7°C° 1.5 mm 8 mps 743 mmHg 75%
09:00 +8°C° 0.1 mm 9 mps 743 mmHg 67%
10:00 +11°C° 0.1 mm 9 mps 743 mmHg 60%
11:00 +13°C° 0.1 mm 10 mps 743 mmHg 52%
12:00 +13°C° 0 mm 9 mps 743 mmHg 51%
13:00 +13°C° 0 mm 9 mps 743 mmHg 50%
14:00 +15°C° 0 mm 8 mps 743 mmHg 49%
15:00 +13°C° 0.1 mm 8 mps 743 mmHg 51%
16:00 +14°C° 0.1 mm 7 mps 743 mmHg 53%
17:00 +14°C° 0.1 mm 6 mps 744 mmHg 55%
18:00 +12°C° 0.2 mm 5 mps 744 mmHg 65%
19:00 +11°C° 0.2 mm 4 mps 744 mmHg 75%
20:00 +9°C° 0.2 mm 3 mps 744 mmHg 84%
21:00 +9°C° 0.9 mm 3 mps 744 mmHg 85%
22:00 +8°C° 0.9 mm 4 mps 744 mmHg 87%
23:00 +8°C° 0.9 mm 4 mps 744 mmHg 88%

20 June, Sunday

Time Temperature Precipitation Wind Pressure Humidity
00:00 +8°C° 1.7 mm 5 mps 744 mmHg 87%
01:00 +8°C° 1.7 mm 5 mps 743 mmHg 86%
02:00 +8°C° 1.7 mm 6 mps 743 mmHg 85%
03:00 +8°C° 1 mm 6 mps 743 mmHg 86%
04:00 +8°C° 1 mm 6 mps 743 mmHg 86%
05:00 +7°C° 1 mm 6 mps 743 mmHg 87%
06:00 +7°C° 0.2 mm 6 mps 743 mmHg 85%
07:00 +7°C° 0.2 mm 6 mps 743 mmHg 84%
08:00 +6°C° 0.2 mm 7 mps 743 mmHg 83%
09:00 +8°C° 0.1 mm 6 mps 743 mmHg 83%
10:00 +8°C° 0.1 mm 6 mps 743 mmHg 82%
11:00 +8°C° 0.1 mm 5 mps 743 mmHg 81%
12:00 +8°C° 0 mm 5 mps 743 mmHg 80%
13:00 +8°C° 0 mm 5 mps 743 mmHg 80%
14:00 +9°C° 0 mm 5 mps 744 mmHg 79%
15:00 +9°C° 0 mm 5 mps 744 mmHg 79%
16:00 +10°C° 0 mm 4 mps 744 mmHg 80%
17:00 +11°C° 0 mm 4 mps 744 mmHg 80%
18:00 +10°C° 0 mm 3 mps 744 mmHg 83%
19:00 +10°C° 0 mm 3 mps 745 mmHg 85%
20:00 +10°C° 0 mm 2 mps 745 mmHg 88%
21:00 +10°C° 0.1 mm 2 mps 745 mmHg 89%
22:00 +10°C° 0.1 mm 2 mps 745 mmHg 90%
23:00 +9°C° 0.1 mm 2 mps 746 mmHg 92%

21 June, Monday

Time Temperature Precipitation Wind Pressure Humidity
00:00 +9°C° 0 mm 2 mps 746 mmHg 92%
01:00 +9°C° 0 mm 2 mps 746 mmHg 92%
02:00 +9°C° 0 mm 2 mps 746 mmHg 93%
03:00 +9°C° 0 mm 3 mps 746 mmHg 92%
04:00 +9°C° 0 mm 3 mps 746 mmHg 92%
05:00 +9°C° 0 mm 3 mps 747 mmHg 92%
06:00 +10°C° 0.1 mm 3 mps 747 mmHg 90%
07:00 +11°C° 0.1 mm 3 mps 747 mmHg 89%
08:00 +11°C° 0.1 mm 4 mps 748 mmHg 87%
09:00 +12°C° 0 mm 4 mps 748 mmHg 85%
10:00 +12°C° 0 mm 4 mps 749 mmHg 84%
11:00 +13°C° 0 mm 4 mps 749 mmHg 83%
12:00 +13°C° 0.1 mm 4 mps 749 mmHg 83%
13:00 +13°C° 0.1 mm 4 mps 750 mmHg 83%
14:00 +13°C° 0.1 mm 3 mps 750 mmHg 83%
15:00 +14°C° 0 mm 4 mps 750 mmHg 79%
16:00 +15°C° 0 mm 4 mps 750 mmHg 75%
17:00 +17°C° 0 mm 4 mps 751 mmHg 71%
18:00 +16°C° 0.1 mm 3 mps 751 mmHg 74%
19:00 +15°C° 0.1 mm 2 mps 751 mmHg 77%
20:00 +15°C° 0.1 mm 1 mps 751 mmHg 80%
21:00 +14°C° 0 mm 2 mps 751 mmHg 82%
22:00 +13°C° 0 mm 2 mps 751 mmHg 83%
23:00 +13°C° 0 mm 2 mps 751 mmHg 84%
Show more

We Need Your Consent

Meteoprog and our Service Providers may store and access personal data such as cookies, device identifiers or other similar technologies on your device and process such data to personalise content and ads, as well as provide social media features and to analyse the traffic.

  • Store and/or access information on your device

    Cookies, device identifiers or other information can be stored or accessed on your device for the purposes indicated above.

  • Personalised ads and content, ad and content measurement, audience insights, and products development

    Ads and content can be personalised based on a profile. More data can be added to better personalise ads and content. Ad and content performance can be measured. Insights about the audience who saw the ads and content can be derived. Such data can be used to develop or improve user’s experience, systems and software.

By clicking ‘I Agree’ you will allow the use of indicated cookies, device identifiers, web beacons or other similar technologies. Your settings can be changed in the browser on your device.

For certain purposes, legitimate interests may be relied on, rather than consent. You can read more about this in our Privacy and Cookie Policy.